TVF05 LFMT-LFPO

Flight info

Callsign TVF05
Flight time 1h 4m
Altitude 34000
Route NG DCT MOLEN DCT MTL DCT ETREK DCT MADOT DCT MOPEM DCT PIBAT
Aircraft A20N/M-SDE2E3FGHIRWXY/LB1

Departure

Time 2026-04-25 15:12
Airport Montpellier-Méditerranée Airport (LFMT)

Arrival

Time 2026-04-25 16:16
Airport Paris-Orly Airport (LFPO)
Time Latitude Longitude Altitude Speed Heading
2026-04-25 14:57 43.57942 3.96027 19 ft 0 kts 256°
2026-04-25 15:03 43.57942 3.96028 19 ft 0 kts 256°
2026-04-25 15:03 43.57944 3.96039 19 ft 2 kts 250°
2026-04-25 15:04 43.57949 3.96059 19 ft 2 kts 253°
2026-04-25 15:04 43.57953 3.96079 19 ft 2 kts 252°
2026-04-25 15:04 43.57958 3.96098 18 ft 2 kts 253°
2026-04-25 15:04 43.57962 3.96118 18 ft 2 kts 252°
2026-04-25 15:05 43.57966 3.96131 18 ft 0 kts 253°
2026-04-25 15:05 43.57966 3.96137 18 ft 0 kts 307°
2026-04-25 15:05 43.57963 3.96142 18 ft 0 kts 306°
2026-04-25 15:07 43.57963 3.96141 18 ft 0 kts 305°
2026-04-25 15:07 43.57974 3.96118 18 ft 6 kts 304°
2026-04-25 15:08 43.58014 3.96037 19 ft 13 kts 303°
2026-04-25 15:08 43.58056 3.95917 20 ft 14 kts 295°
2026-04-25 15:08 43.58114 3.95801 20 ft 15 kts 310°
2026-04-25 15:08 43.58212 3.95805 20 ft 16 kts 38°
2026-04-25 15:09 43.58310 3.95767 20 ft 17 kts 306°
2026-04-25 15:09 43.58380 3.95626 20 ft 18 kts 304°
2026-04-25 15:09 43.58519 3.95505 21 ft 9 kts 28°
2026-04-25 15:10 43.58526 3.95512 21 ft 0 kts 34°
2026-04-25 15:10 43.58542 3.95526 21 ft 5 kts 34°
2026-04-25 15:10 43.58564 3.95668 22 ft 0 kts 125°
2026-04-25 15:11 43.58563 3.95670 22 ft 0 kts 125°
2026-04-25 15:11 43.58468 3.95858 20 ft 62 kts 125°
2026-04-25 15:11 43.58071 3.96646 14 ft 136 kts 125°
2026-04-25 15:12 43.56898 3.99211 1152 ft 165 kts 102°
2026-04-25 15:12 43.57131 4.00689 1935 ft 170 kts 63°
2026-04-25 15:12 43.57796 4.02134 2482 ft 190 kts 57°
2026-04-25 15:12 43.58052 4.02651 2694 ft 196 kts 56°
2026-04-25 15:13 43.59502 4.05275 3736 ft 224 kts 35°
2026-04-25 15:13 43.62687 4.06694 4991 ft 264 kts 15°
2026-04-25 15:13 43.64291 4.07919 5981 ft 272 kts 45°
2026-04-25 15:14 43.65268 4.10123 7079 ft 275 kts 60°
2026-04-25 15:14 43.66102 4.12488 8056 ft 280 kts 60°
2026-04-25 15:14 43.66929 4.14876 9053 ft 282 kts 60°
2026-04-25 15:14 43.67781 4.17317 10052 ft 284 kts 60°
2026-04-25 15:15 43.68649 4.19753 10815 ft 293 kts 60°
2026-04-25 15:15 43.69582 4.22341 11335 ft 311 kts 60°
2026-04-25 15:15 43.70573 4.25081 11825 ft 330 kts 60°
2026-04-25 15:15 43.71624 4.27989 12268 ft 348 kts 60°
2026-04-25 15:16 43.72715 4.31012 12883 ft 359 kts 60°
2026-04-25 15:16 43.73827 4.34099 13679 ft 364 kts 61°
2026-04-25 15:16 43.76369 4.40162 15187 ft 370 kts 43°
2026-04-25 15:17 43.80886 4.43266 16655 ft 372 kts 11°
2026-04-25 15:17 43.83446 4.44080 17368 ft 377 kts 11°
2026-04-25 15:17 43.86012 4.44896 18033 ft 383 kts 11°
2026-04-25 15:18 43.88612 4.45732 18703 ft 388 kts 11°
2026-04-25 15:18 43.93892 4.47452 20073 ft 396 kts 11°
2026-04-25 15:18 43.96574 4.48332 20739 ft 400 kts 12°
2026-04-25 15:19 43.99291 4.49228 21390 ft 404 kts 12°
2026-04-25 15:19 44.00227 4.49537 21612 ft 405 kts 12°
2026-04-25 15:19 44.04771 4.51126 22633 ft 412 kts 15°
2026-04-25 15:19 44.07514 4.52360 23256 ft 416 kts 18°
2026-04-25 15:20 44.10244 4.53771 23859 ft 419 kts 19°
2026-04-25 15:20 44.12952 4.55210 24430 ft 423 kts 19°
2026-04-25 15:20 44.15713 4.56685 24973 ft 426 kts 19°
2026-04-25 15:20 44.18489 4.58168 25467 ft 430 kts 19°
2026-04-25 15:21 44.21308 4.59672 25947 ft 434 kts 19°
2026-04-25 15:21 44.24113 4.61169 26453 ft 436 kts 19°
2026-04-25 15:21 44.26920 4.62668 27099 ft 435 kts 19°
2026-04-25 15:21 44.29752 4.64182 27762 ft 433 kts 19°
2026-04-25 15:22 44.32561 4.65683 28389 ft 432 kts 19°
2026-04-25 15:22 44.35330 4.67164 28987 ft 431 kts 19°
2026-04-25 15:22 44.38133 4.68666 29583 ft 430 kts 19°
2026-04-25 15:22 44.40903 4.70149 30167 ft 429 kts 19°
2026-04-25 15:23 44.43705 4.71653 30745 ft 428 kts 19°
2026-04-25 15:23 44.46476 4.73142 31295 ft 428 kts 19°
2026-04-25 15:23 44.49239 4.74514 31820 ft 426 kts 15°
2026-04-25 15:23 44.52126 4.75579 32346 ft 424 kts 10°
2026-04-25 15:24 44.55015 4.76274 32791 ft 424 kts
2026-04-25 15:24 44.57934 4.76614 33164 ft 424 kts
2026-04-25 15:24 44.60885 4.76591 33521 ft 425 kts 355°
2026-04-25 15:24 44.61859 4.76504 33635 ft 425 kts 354°
2026-04-25 15:25 44.66747 4.75598 34016 ft 428 kts 349°
2026-04-25 15:25 44.69691 4.74937 34023 ft 428 kts 349°
2026-04-25 15:25 44.75541 4.73611 34026 ft 429 kts 349°
2026-04-25 15:26 44.81441 4.72285 34035 ft 429 kts 349°
2026-04-25 15:26 44.87300 4.70973 34046 ft 428 kts 349°
2026-04-25 15:27 44.93195 4.69653 34058 ft 428 kts 349°
2026-04-25 15:28 45.01993 4.67677 34073 ft 428 kts 349°
2026-04-25 15:28 45.07853 4.66358 34082 ft 428 kts 349°
2026-04-25 15:29 45.13757 4.65024 34084 ft 428 kts 349°
2026-04-25 15:29 45.19604 4.63705 34093 ft 428 kts 349°
2026-04-25 15:30 45.25489 4.62372 34103 ft 428 kts 349°
2026-04-25 15:30 45.31363 4.61032 34110 ft 428 kts 349°
2026-04-25 15:31 45.37239 4.59685 34105 ft 427 kts 349°
2026-04-25 15:31 45.43071 4.58347 34099 ft 428 kts 349°
2026-04-25 15:32 45.48951 4.56994 34092 ft 428 kts 349°
2026-04-25 15:32 45.54815 4.55640 34090 ft 428 kts 349°
2026-04-25 15:33 45.63597 4.53607 34090 ft 428 kts 349°
2026-04-25 15:33 45.69487 4.52240 34093 ft 428 kts 349°
2026-04-25 15:34 45.75330 4.50886 34093 ft 428 kts 349°
2026-04-25 15:34 45.79236 4.49983 34093 ft 428 kts 349°
2026-04-25 15:35 45.89977 4.47483 34095 ft 428 kts 349°
2026-04-25 15:36 45.98791 4.45420 34103 ft 428 kts 349°
2026-04-25 15:36 46.04652 4.44043 34095 ft 428 kts 349°
2026-04-25 15:37 46.10512 4.42663 34091 ft 427 kts 349°
2026-04-25 15:37 46.16368 4.41281 34092 ft 427 kts 349°
2026-04-25 15:38 46.22239 4.39890 34090 ft 427 kts 349°
2026-04-25 15:38 46.28068 4.38511 34093 ft 427 kts 349°
2026-04-25 15:39 46.33947 4.37122 34090 ft 428 kts 349°
2026-04-25 15:39 46.39795 4.35736 34091 ft 427 kts 349°
2026-04-25 15:40 46.43702 4.34806 34092 ft 427 kts 348°
2026-04-25 15:40 46.51495 4.32944 34089 ft 427 kts 348°
2026-04-25 15:41 46.57340 4.31543 34089 ft 427 kts 348°
2026-04-25 15:41 46.63170 4.30143 34094 ft 427 kts 348°
2026-04-25 15:42 46.69023 4.28731 34095 ft 427 kts 348°
2026-04-25 15:42 46.74881 4.27317 34096 ft 427 kts 348°
2026-04-25 15:43 46.80661 4.25461 34097 ft 425 kts 342°
2026-04-25 15:43 46.86212 4.22705 34103 ft 423 kts 336°
2026-04-25 15:44 46.91674 4.19521 34106 ft 423 kts 336°
2026-04-25 15:44 46.97123 4.16315 34110 ft 423 kts 336°
2026-04-25 15:45 47.02570 4.13112 34114 ft 422 kts 336°
2026-04-25 15:45 47.06188 4.10985 34119 ft 423 kts 336°
2026-04-25 15:46 47.13480 4.06689 34001 ft 425 kts 336°
2026-04-25 15:46 47.16210 4.05075 33486 ft 423 kts 336°
2026-04-25 15:46 47.18903 4.03482 32885 ft 422 kts 336°
2026-04-25 15:47 47.21604 4.01882 32223 ft 422 kts 336°
2026-04-25 15:47 47.24331 4.00265 31535 ft 422 kts 336°
2026-04-25 15:47 47.27031 3.98662 30838 ft 422 kts 336°
2026-04-25 15:47 47.29738 3.97053 30116 ft 423 kts 336°
2026-04-25 15:48 47.32472 3.95426 29368 ft 423 kts 336°
2026-04-25 15:48 47.35204 3.93802 28615 ft 424 kts 336°
2026-04-25 15:48 47.37928 3.92181 27870 ft 424 kts 336°
2026-04-25 15:48 47.40625 3.90578 27695 ft 424 kts 336°
2026-04-25 15:49 47.43364 3.88949 27645 ft 426 kts 336°
2026-04-25 15:49 47.46123 3.87303 27562 ft 426 kts 336°
2026-04-25 15:49 47.48856 3.85671 27419 ft 427 kts 336°
2026-04-25 15:49 47.51613 3.84020 27094 ft 427 kts 336°
2026-04-25 15:50 47.53422 3.82935 26702 ft 428 kts 336°
2026-04-25 15:50 47.57119 3.80716 25738 ft 428 kts 336°
2026-04-25 15:50 47.59840 3.79080 25231 ft 421 kts 336°
2026-04-25 15:50 47.62510 3.77474 24698 ft 418 kts 336°
2026-04-25 15:51 47.65203 3.75851 24134 ft 414 kts 336°
2026-04-25 15:51 47.66088 3.75317 23945 ft 413 kts 336°
2026-04-25 15:51 47.70464 3.72675 23020 ft 407 kts 336°
2026-04-25 15:51 47.73059 3.71105 22470 ft 403 kts 336°
2026-04-25 15:52 47.75648 3.69537 21920 ft 400 kts 336°
2026-04-25 15:52 47.78184 3.68000 21383 ft 396 kts 336°
2026-04-25 15:52 47.80728 3.66455 20829 ft 393 kts 336°
2026-04-25 15:52 47.83241 3.64928 20280 ft 390 kts 336°
2026-04-25 15:53 47.85731 3.63413 19731 ft 387 kts 336°
2026-04-25 15:53 47.88225 3.61893 19172 ft 385 kts 337°
2026-04-25 15:53 47.90687 3.60393 18631 ft 382 kts 336°
2026-04-25 15:53 47.93096 3.58925 18297 ft 372 kts 336°
2026-04-25 15:54 47.95401 3.57372 18084 ft 358 kts 330°
2026-04-25 15:54 47.97430 3.55363 17790 ft 348 kts 321°
2026-04-25 15:54 47.99210 3.52932 17293 ft 346 kts 315°
2026-04-25 15:54 48.00896 3.50369 16805 ft 344 kts 314°
2026-04-25 15:55 48.02548 3.47818 16335 ft 341 kts 314°
2026-04-25 15:55 48.04181 3.45299 15864 ft 339 kts 314°
2026-04-25 15:55 48.05822 3.42776 15397 ft 337 kts 314°
2026-04-25 15:55 48.07434 3.40299 14936 ft 335 kts 314°
2026-04-25 15:56 48.09064 3.37798 14463 ft 333 kts 315°
2026-04-25 15:56 48.10664 3.35342 14005 ft 331 kts 315°
2026-04-25 15:56 48.12264 3.32886 13548 ft 329 kts 314°
2026-04-25 15:56 48.13842 3.30461 13098 ft 328 kts 314°
2026-04-25 15:57 48.15427 3.28022 12643 ft 325 kts 314°
2026-04-25 15:57 48.16988 3.25618 12383 ft 316 kts 314°
2026-04-25 15:57 48.18483 3.23314 12253 ft 303 kts 314°
2026-04-25 15:57 48.19922 3.21096 12123 ft 292 kts 314°
2026-04-25 15:58 48.21293 3.18985 12076 ft 280 kts 314°
2026-04-25 15:58 48.22642 3.16911 11970 ft 277 kts 314°
2026-04-25 15:58 48.23987 3.14840 11581 ft 279 kts 315°
2026-04-25 15:58 48.25348 3.12744 11207 ft 279 kts 314°
2026-04-25 15:59 48.26693 3.10670 10849 ft 279 kts 314°
2026-04-25 15:59 48.28032 3.08602 10496 ft 278 kts 315°
2026-04-25 15:59 48.29377 3.06523 10210 ft 279 kts 315°
2026-04-25 15:59 48.30739 3.04421 10152 ft 283 kts 315°
2026-04-25 16:00 48.32121 3.02284 10133 ft 284 kts 315°
2026-04-25 16:00 48.32572 3.01587 10129 ft 285 kts 315°
2026-04-25 16:00 48.34884 2.98008 10121 ft 285 kts 315°
2026-04-25 16:00 48.36259 2.95874 10122 ft 284 kts 315°
2026-04-25 16:01 48.37633 2.93741 10125 ft 284 kts 315°
2026-04-25 16:01 48.38987 2.91636 10124 ft 284 kts 315°
2026-04-25 16:01 48.40362 2.89494 10122 ft 283 kts 315°
2026-04-25 16:01 48.41723 2.87378 10117 ft 283 kts 315°
2026-04-25 16:02 48.43092 2.85244 10118 ft 283 kts 315°
2026-04-25 16:02 48.44465 2.83085 10111 ft 284 kts 311°
2026-04-25 16:02 48.45464 2.80578 10106 ft 285 kts 289°
2026-04-25 16:02 48.45773 2.77630 10114 ft 287 kts 274°
2026-04-25 16:03 48.45843 2.74635 10114 ft 287 kts 273°
2026-04-25 16:03 48.45904 2.71614 10116 ft 288 kts 273°
2026-04-25 16:03 48.45973 2.68630 10097 ft 287 kts 274°
2026-04-25 16:03 48.46074 2.65622 10103 ft 287 kts 277°
2026-04-25 16:04 48.46413 2.62674 10114 ft 286 kts 286°
2026-04-25 16:04 48.46991 2.59799 10099 ft 286 kts 290°
2026-04-25 16:04 48.47621 2.56963 10133 ft 286 kts 290°
2026-04-25 16:04 48.48258 2.54127 10123 ft 286 kts 290°
2026-04-25 16:05 48.48884 2.51326 10103 ft 286 kts 290°
2026-04-25 16:05 48.49514 2.48492 10129 ft 286 kts 290°
2026-04-25 16:05 48.50287 2.42586 9507 ft 291 kts 278°
2026-04-25 16:06 48.50505 2.39551 9030 ft 292 kts 278°
2026-04-25 16:06 48.50712 2.36551 8504 ft 285 kts 277°
2026-04-25 16:06 48.50909 2.33660 7994 ft 278 kts 277°
2026-04-25 16:06 48.51106 2.30752 7435 ft 277 kts 277°
2026-04-25 16:07 48.51298 2.27889 6887 ft 275 kts 277°
2026-04-25 16:07 48.51361 2.26953 6713 ft 275 kts 277°
2026-04-25 16:07 48.51678 2.22221 5816 ft 272 kts 277°
2026-04-25 16:07 48.51868 2.19411 5283 ft 270 kts 277°
2026-04-25 16:08 48.52060 2.16586 4755 ft 271 kts 277°
2026-04-25 16:08 48.52251 2.13751 4263 ft 273 kts 277°
2026-04-25 16:08 48.52439 2.10934 4013 ft 267 kts 277°
2026-04-25 16:08 48.52623 2.08158 4001 ft 267 kts 277°
2026-04-25 16:09 48.52929 2.05432 3988 ft 265 kts 292°
2026-04-25 16:09 48.53896 2.03202 3983 ft 245 kts 316°
2026-04-25 16:09 48.55104 2.01532 3985 ft 228 kts 321°
2026-04-25 16:09 48.56292 2.00066 3986 ft 220 kts 328°
2026-04-25 16:10 48.57718 1.99339 3980 ft 217 kts
2026-04-25 16:10 48.59125 1.99875 3982 ft 203 kts 26°
2026-04-25 16:10 48.60302 2.00894 3959 ft 188 kts 37°
2026-04-25 16:10 48.61239 2.02233 3967 ft 186 kts 50°
2026-04-25 16:11 48.62000 2.03831 3988 ft 186 kts 56°
2026-04-25 16:11 48.62680 2.05480 3960 ft 187 kts 58°
2026-04-25 16:11 48.63331 2.07163 3767 ft 187 kts 59°
2026-04-25 16:11 48.63966 2.08889 3523 ft 186 kts 60°
2026-04-25 16:12 48.64574 2.10595 3284 ft 185 kts 61°
2026-04-25 16:12 48.65175 2.12304 3047 ft 184 kts 61°
2026-04-25 16:12 48.65769 2.14002 2812 ft 183 kts 61°
2026-04-25 16:12 48.65966 2.14564 2733 ft 183 kts 61°
2026-04-25 16:13 48.66935 2.17331 2425 ft 172 kts 62°
2026-04-25 16:13 48.67470 2.18857 2197 ft 160 kts 60°
2026-04-25 16:13 48.67976 2.20296 1971 ft 147 kts 60°
2026-04-25 16:13 48.68435 2.21600 1753 ft 135 kts 62°
2026-04-25 16:14 48.68870 2.22838 1570 ft 133 kts 59°
2026-04-25 16:14 48.69304 2.24081 1402 ft 132 kts 60°
2026-04-25 16:14 48.69724 2.25307 1229 ft 131 kts 60°
2026-04-25 16:14 48.70154 2.26521 1078 ft 129 kts 59°
2026-04-25 16:15 48.70584 2.27715 941 ft 132 kts 60°
2026-04-25 16:15 48.71020 2.28918 787 ft 130 kts 62°
2026-04-25 16:15 48.71448 2.30146 603 ft 130 kts 62°
2026-04-25 16:15 48.71874 2.31353 410 ft 132 kts 60°
2026-04-25 16:16 48.72307 2.32570 282 ft 126 kts 62°
2026-04-25 16:16 48.72666 2.33581 280 ft 87 kts 61°
2026-04-25 16:16 48.72886 2.34204 283 ft 53 kts 62°
2026-04-25 16:16 48.73000 2.34632 283 ft 35 kts 81°
2026-04-25 16:17 48.73027 2.34930 283 ft 20 kts 81°
2026-04-25 16:17 48.73041 2.35104 283 ft 12 kts 93°
2026-04-25 16:17 48.73002 2.35248 283 ft 15 kts 134°
2026-04-25 16:17 48.72912 2.35347 283 ft 16 kts 124°
2026-04-25 16:18 48.72823 2.35445 281 ft 16 kts 165°
2026-04-25 16:18 48.72785 2.35460 280 ft 16 kts 164°
2026-04-25 16:18 48.72639 2.35523 280 ft 12 kts 164°
2026-04-25 16:18 48.72543 2.35563 280 ft 15 kts 164°
2026-04-25 16:19 48.72464 2.35636 280 ft 13 kts 105°
2026-04-25 16:19 48.72478 2.35773 281 ft 10 kts 83°
2026-04-25 16:19 48.72476 2.35878 283 ft 10 kts 98°
2026-04-25 16:20 48.72501 2.36007 283 ft 3 kts 14°
2026-04-25 16:20 48.72531 2.36018 283 ft 5 kts 13°
2026-04-25 16:20 48.72552 2.36026 284 ft 0 kts 13°